Location: Gälforsberget
(66.6500°N, 22.4167°E)
Time: 11:41:23
(UTC+00:00)

Cosmos 2263 - Pass Details

Date: 11 April 2026
Orbit: 831 x 863 km, 70.9° (Epoch: 10 May)

Event Time Altitude Azimuth Distance (km) Brightness Sun altitude
Rises 19:31:27 0° 303° (WNW) 3,387 9.3 -8.1°
Reaches altitude 10° 19:33:53 10° 304° (NW) 2,453 8.2 -8.3°
Maximum altitude 19:39:32 86° 34° (NE) 846 4.2 -8.7°
Enters shadow 19:45:06 10° 124° (SE) 2,429 6.0 -9.0°
